GSAT-8 (GAGAN/PRN 127)

Last updated on Thu Jul 03 2025 00:03:25 GMT+0000 (Coordinated Universal Time)

1 37605U 11022A 25183.59643172 .00000092 00000+0 00000+0 0 9992 2 37605 1.2268 86.3658 0002019 174.5942 289.6902 1.00271101 49712
UTC large
Height (km)
Speed (km/s)
/
Latitude / Longitude
Inclination (degrees)
Orbital Period (minutes)
Azimuth
Elevation
Range (km)
Doppler Factor

Next 0 passes for location: London (51.5072 / 0.1276)

Sorry there are no passes over London.